Crossville, TN

4:21 AM CDT on March 30, 2017 (GMT -0500)
Crossville Memorial-Whitson

Weather History for KCSV - June, 2013

Change the Weather History Date:

Wednesday, June 5, 2013

  Actual Average Record
Temperature  
Mean Temperature 67 °F 69 °F  
Max Temperature 75 °F 79 °F 89 °F (2011)
Min Temperature 58 °F 58 °F 40 °F (1954)
Degree Days  
Heating Degree Days 0    
Month to date heating degree days 0  
Since 1 June heating degree days 0  
Since 1 July heating degree days 4343  
Cooling Degree Days 2    
Month to date cooling degree days 18  
Year to date cooling degree days 98  
Since 1 June cooling degree days 18  
Growing Degree Days 15 (Base 50)    
Moisture  
Dew Point 63 °F    
Average Humidity 86    
Maximum Humidity 93    
Minimum Humidity 79    
Precipitation  
Precipitation 0.49 in 0.16 in 2.95 in (1998)
Month to date precipitation 1.70 0.80  
Year to date precipitation 31.73 25.18  
Sea Level Pressure  
Sea Level Pressure 30.00 in    
Wind  
Wind Speed 3 mph (South)    
Max Wind Speed 16 mph    
Max Gust Speed 33 mph    
Visibility 8 miles    
Events Rain , Thunderstorm    
T = Trace of Precipitation, MM = Missing Value Source: NWS Daily Summary

Daily Weather History Graph

Daily Weather History Graph

Search for Another Location

Airport or City:

Trip Planner

Search our weather history database for the weather conditions in past years. The results will help you decide how hot, cold, wet, or windy it might be!

Date:

Astronomy

Jun. 05, 2013 Rise Set
Actual Time 5:23 AM CDT 7:54 PM CDT
Civil Twilight 4:54 AM CDT 8:24 PM CDT
Nautical Twilight 4:17 AM CDT 9:01 PM CDT
Astronomical Twilight 3:36 AM CDT 9:41 PM CDT
Moon 3:23 AM CDT (6/5) 5:23 PM CDT (6/5)
Length of Visible Light 15h 29m
Length of Day
14h 30m
Waning Crescent, 8% of the Moon is Illuminated
Jun 5
Waning Crescent
Jun 8
New
Jun 16
First Quarter
Jun 23
Full
Jun 29
Last Quarter

Hourly Weather History & Observations

Time (CDT) Temp. Dew Point Humidity Pressure Visibility Wind Dir Wind Speed Gust Speed Precip Events Conditions
12:53 AM 60.1 °F 57.0 °F 90% 30.02 in 10.0 mi Calm Calm - N/A   Clear
1:53 AM 60.1 °F 57.0 °F 90% 30.01 in 9.0 mi Calm Calm - N/A   Clear
2:53 AM 57.9 °F 55.9 °F 93% 30.01 in 5.0 mi Calm Calm - N/A   Partly Cloudy
3:53 AM 57.9 °F 55.9 °F 93% 30.01 in 5.0 mi Calm Calm - N/A   Clear
4:53 AM 59.0 °F 57.0 °F 93% 30.02 in 8.0 mi Calm Calm - N/A   Partly Cloudy
5:53 AM 59.0 °F 57.0 °F 93% 30.02 in 5.0 mi Calm Calm - N/A   Mostly Cloudy
6:53 AM 64.0 °F 60.1 °F 87% 30.03 in 10.0 mi Calm Calm - N/A   Mostly Cloudy
7:53 AM 72.0 °F 66.0 °F 81% 30.01 in 9.0 mi SSE 4.6 mph - N/A   Clear
8:53 AM 72.0 °F 66.0 °F 81% 30.01 in 8.0 mi Variable 4.6 mph 17.3 mph N/A   Mostly Cloudy
9:05 AM 73.4 °F 66.2 °F 78% 30.06 in 8.0 mi SSE 11.5 mph 17.3 mph N/A   Overcast
9:13 AM 73.4 °F 66.2 °F 78% 30.06 in 8.0 mi South 11.5 mph 18.4 mph N/A   Overcast
9:53 AM 73.9 °F 66.0 °F 76% 30.00 in 9.0 mi South 9.2 mph - N/A   Mostly Cloudy
10:53 AM 73.9 °F 66.0 °F 76% 30.01 in 9.0 mi Variable 5.8 mph - N/A   Overcast
11:23 AM 73.4 °F 66.2 °F 78% 30.06 in 9.0 mi South 8.1 mph - N/A Thunderstorm Mostly Cloudy
11:53 AM 64.9 °F 63.0 °F 93% 30.03 in 4.0 mi West 9.2 mph - 0.04 in Rain , Thunderstorm Light Thunderstorms and Rain
12:00 PM 64.4 °F 62.6 °F 94% 30.06 in 1.8 mi WNW 4.6 mph - 0.05 in Rain , Thunderstorm Thunderstorms and Rain
12:09 PM 64.4 °F 62.6 °F 94% 30.07 in 0.8 mi Calm Calm - 0.10 in Rain , Thunderstorm Light Thunderstorms and Rain
12:14 PM 64.4 °F 62.6 °F 94% 30.07 in 2.5 mi Calm Calm - 0.10 in Rain , Thunderstorm Light Thunderstorms and Rain
12:21 PM 66.2 °F 62.6 °F 88% 30.07 in 6.0 mi Calm Calm - 0.11 in Rain , Thunderstorm Light Thunderstorms and Rain
12:44 PM 66.2 °F 62.6 °F 88% 30.07 in 10.0 mi Variable 6.9 mph 33.4 mph 0.11 in   Mostly Cloudy
12:53 PM 66.0 °F 63.0 °F 90% 30.02 in 10.0 mi NNW 3.5 mph - 0.11 in   Mostly Cloudy
1:53 PM 66.0 °F 63.0 °F 90% 30.02 in 4.0 mi Calm Calm - 0.02 in Rain , Thunderstorm Light Thunderstorms and Rain
2:07 PM 64.4 °F 62.6 °F 94% 30.06 in 2.0 mi Variable 4.6 mph - 0.04 in Rain , Thunderstorm Thunderstorms and Rain
2:44 PM 64.4 °F 62.6 °F 94% 30.03 in 2.0 mi South 5.8 mph - 0.19 in Rain Heavy Rain
2:53 PM 64.9 °F 62.1 °F 90% 29.99 in 1.8 mi SSE 5.8 mph - 0.24 in Rain Heavy Rain
3:04 PM 64.4 °F 62.6 °F 94% 30.01 in 2.5 mi SSE 4.6 mph - 0.05 in Rain Rain
3:15 PM 66.2 °F 62.6 °F 88% 30.01 in 4.0 mi South 3.5 mph - 0.06 in Rain Light Rain
3:26 PM 66.2 °F 62.6 °F 88% 30.00 in 10.0 mi South 5.8 mph - 0.07 in Rain , Thunderstorm Light Thunderstorms and Rain
3:41 PM 66.2 °F 62.6 °F 88% 29.99 in 10.0 mi South 4.6 mph - 0.07 in Rain Light Rain
3:53 PM 66.0 °F 62.1 °F 87% 29.95 in 10.0 mi SSE 6.9 mph - 0.08 in Rain Light Rain
4:53 PM 66.0 °F 64.0 °F 93% 29.94 in 10.0 mi South 6.9 mph - 0.00 in   Scattered Clouds
5:53 PM 70.0 °F 64.9 °F 84% 29.91 in 10.0 mi Variable 4.6 mph - N/A   Clear
6:53 PM 69.1 °F 64.0 °F 84% 29.92 in 10.0 mi South 3.5 mph - N/A   Clear
7:53 PM 66.9 °F 64.9 °F 93% 29.91 in 10.0 mi Variable 5.8 mph - N/A   Mostly Cloudy
8:22 PM 66.2 °F 64.4 °F 94% 29.97 in 10.0 mi South 4.6 mph - N/A   Mostly Cloudy
8:53 PM 66.0 °F 64.0 °F 93% 29.92 in 10.0 mi SSE 3.5 mph - N/A   Overcast
9:26 PM 64.4 °F 62.6 °F 94% 29.97 in 10.0 mi South 4.6 mph - N/A   Scattered Clouds
9:53 PM 64.9 °F 63.0 °F 93% 29.92 in 10.0 mi Calm Calm - N/A   Clear
10:03 PM 64.4 °F 62.6 °F 94% 29.98 in 10.0 mi Calm Calm - N/A   Partly Cloudy
10:26 PM 64.4 °F 62.6 °F 94% 29.98 in 10.0 mi SSE 3.5 mph - N/A   Mostly Cloudy
10:34 PM 64.4 °F 62.6 °F 94% 29.97 in 10.0 mi Variable 3.5 mph - N/A   Mostly Cloudy
10:53 PM 64.9 °F 63.0 °F 93% 29.92 in 9.0 mi Calm Calm - N/A   Overcast
11:53 PM 66.0 °F 63.0 °F 90% 29.93 in 9.0 mi South 3.5 mph - N/A   Overcast